KUIPER-00146

导读

KUIPER-00176是美国亚马逊柯伊伯(Kuiper)低轨宽带互联网星座的卫星,于2025年9月25日发射。柯伊伯星座计划部署超过3200颗卫星,运行在近地轨道,旨在为全球提供高速、低延迟的卫星宽带服务,填补偏远地区网络覆盖空白,支撑消费者、企业及运营商等多场景互联需求,KUIPER-00176的发射是该星座组网建设进程的重要组成部分。

基本信息
目录编号:
65788
目录名称:
KUIPER-00176
国际标识:
2025-217AC
轨道中心:
EARTH
卫星名称:
KUIPER-00176
卫星全名:
KUIPER-00146
卫星状态:
在轨 (已飞行352 天)
发射日期:
2025-09-25 UTC
国别 :
美国 (US)
星等 :
--
该卫星已列入 空间交会检测服务 Space Conjunction Data Service (SCDS) ,当前飞行风险评估等级: 无高风险
轨道信息
数据来源 国际轨道数据
星历时间: 2026-09-11T17:22:03+0800
17小时前
查看轨道信息
半长轴: 7007.682km
偏心率: 0.0000537
轨道倾角: 51.901°
近地点辐角 54.598°
升交点赤经 301.928°
平近点角 305.503°
近地点: 629.168km
远地点: 629.922km
周期: 97.302分钟
每日圈数: 14.799302
详细信息
使用方式:
暂无
2D轨道图
3D轨道图
轨道高度分析图
轨道倾角分析图
轨道综合分析图
查看轨道综合分析图
与全量物体交会距离演化趋势
与全量物体交会风险概率演化趋势